User: anonymous   Login
Location: Nashville
(36.1660°N, 86.7840°W)
Time: 23:41:43
(UTC-05:00)
Language:

EO-88 - Orbit

View from above orbital plane
View from above orbital plane
View from above satellite
View from above satellite

Ground track
Ground track

The orbit data is extracted from the following two-line orbital elements,

1 42017U 17008BX  23150.63354815  .00161422  00000-0  11348-2 0  9991
2 42017  97.2107 221.2636 0002817 175.9986 184.1301 15.73659460350706
Epoch (UTC): 30 May 2023 15:12:18
Eccentricity: 0.0002817
inclination: 97.2107°
perigee height: 346 km
apogee height: 350 km
right ascension of ascending node: 221.2636°
argument of perigee: 175.9986°
revolutions per day: 15.73659460
mean anomaly at epoch: 184.1301°
orbit number at epoch: 35070

The dashed part of the orbit path shows where the satellite is in the earth's shadow,  

DLR